Location: Leoville Oil Field
(38.5903°N, 98.9206°W)
Time: 02:04:18
(UTC+00:00)

Daily predictions for brighter satellites

Satellite Brightness Start Highest point End
(mag) Time Altitude Azimuth Time Altitude Azimuth Time Altitude Azimuth
Envisat 3.1 00:09:03 10° SSE 00:14:01 59° ENE 00:19:01 10° N
Cosmos-2242 3.5 00:10:26 10° N 00:14:27 38° ENE 00:18:25 10° SSE
Cosmos 2297 Rocket 2.4 00:09:25 10° SSW 00:15:04 80° WNW 00:20:45 10° NNE
SMAP 3.3 00:10:38 10° S 00:15:16 78° WSW 00:19:56 10° NNW
SKYMED 2 4.1 00:11:32 10° NNE 00:15:36 39° E 00:19:39 10° SSE
Meteor 2-10 Rocket 4.1 00:12:10 10° N 00:16:56 35° ENE 00:21:33 10° SE
Cosmos 962 Rocket 4.5 00:11:47 10° S 00:17:53 82° E 00:24:05 10° N
Cosmos 1812 Rocket 4.3 00:17:39 10° NNW 00:22:05 61° W 00:26:29 10° S
Cosmos 1980 3.9 00:17:12 10° NNW 00:22:55 81° WSW 00:28:35 10° SSE
Cosmos 2263 Rocket 4.0 00:23:41 10° ESE 00:24:53 11° E 00:26:03 10° E
ISS -2.0 00:22:50 10° W 00:25:41 25° NNW 00:28:34 10° NNE
DELTA 2 R/B (1) 3.6 00:21:38 10° W 00:27:14 81° N 00:32:52 10° E
YAOGAN 1 3.5 00:24:08 10° SE 00:27:44 26° ENE 00:31:18 10° NNE
Cosmos 2227 Rocket 2.6 00:22:33 10° SSW 00:28:11 69° WNW 00:33:49 10° NNE
Meteor 1-21 Rocket 4.4 00:26:39 10° SSW 00:32:15 81° W 00:37:58 10° N
Cosmos 1703 3.5 00:30:08 10° SSE 00:33:56 48° E 00:37:46 10° NNE
FengYun 1-2 T 4.2 00:33:27 10° SSE 00:39:02 69° ENE 00:44:40 10° N
Cosmos 1727 Rocket 4.3 00:39:13 10° N 00:45:01 41° ENE 00:50:48 10° SSE
SL-8 Rocket 4.0 00:39:47 10° S 00:46:06 89° E 00:52:25 10° N
SWAS 4.4 00:46:33 10° SSW 00:50:49 68° ESE 00:55:07 10° NNE
Cosmos 1939 Rocket 3.5 00:47:34 10° SE 00:51:03 32° ENE 00:54:36 10° N
Cosmos 1455 2.2 00:53:36 10° N 00:57:25 82° W 01:01:10 10° S
Ariane Rocket 4.0 00:53:44 10° ESE 00:57:41 23° ENE 01:01:37 10° NNE
CSL-04 Debris 4.2 00:52:47 10° SSE 00:58:00 55° ENE 01:03:17 10° N
Cosmos 1953 Rocket 4.1 00:53:36 10° SSW 00:58:02 64° W 01:02:30 10° N
Shenzhou-11 Module 2.8 00:58:09 10° WNW 01:00:37 30° N 01:01:16 26° NNE
CZ-2D R/B 3.5 00:58:06 10° SE 01:01:43 42° ENE 01:05:22 10° N
COSMO-SKYMED 1 3.2 00:59:27 10° N 01:03:42 57° WNW 01:07:57 10° SSW
Cosmos 1842 Rocket 4.0 01:02:07 10° N 01:06:20 39° ENE 01:10:33 10° SSE
NOSS 3-2 (A) 4.1 01:10:54 10° SSE 01:15:35 28° ESE 01:16:40 26° E
CSL-04 Rocket 3.6 01:13:54 10° SSE 01:19:24 85° ENE 01:24:58 10° NNW
Cosmos 1821 Rocket 4.1 01:13:44 10° SSE 01:19:50 50° E 01:25:54 10° NNE
Cosmos 2098 4.1 01:25:25 10° S 01:28:19 76° ESE 01:28:19 76° ESE
CZ-4 R/B 2.6 01:25:25 10° S 01:29:17 44° W 01:33:15 10° NNW
USA 234 3.7 01:27:39 10° SSE 01:34:04 60° SW 01:40:32 10° NW
OAO 3 Rocket 4.1 01:31:37 10° SW 01:35:42 31° SSE 01:36:19 30° SE
CZ-3C R/B 4.4 00:57:40 10° W 01:37:07 28° SW 01:43:53 10° SSE
ATLAS CENTAUR R/B 0.9 01:33:27 10° NNW 01:37:22 78° NE 01:37:22 78° NE
H-2A R/B 4.0 01:41:09 14° NNE 01:41:09 14° NNE 01:42:00 10° N
Cosmos 2251 Rocket 4.2 01:36:53 10° NNW 01:42:05 56° WSW 01:47:17 10° S
Cosmos 2221 2.3 01:41:10 10° N 01:45:28 83° E 01:49:46 10° S
Cosmos 2227 4.1 01:42:18 10° SSW 01:48:03 85° ESE 01:50:40 34° NNE
SL-16 R/B 3.3 01:42:58 10° NW 01:48:20 45° WSW 01:53:40 10° S
Cosmos 1076 Rocket 4.2 01:45:32 10° S 01:48:24 41° SSE 01:48:24 41° SSE
Atlas Centaur 2 3.0 01:49:01 10° WSW 01:53:13 33° S 01:54:05 31° SSE
Cosmos 1934 Rocket 3.9 01:48:34 10° S 01:54:30 58° E 01:55:08 55° ENE
USA 238 DEB 3.5 01:48:05 10° SSW 01:54:39 68° ESE 01:56:25 49° ENE
USA 238 3.5 01:48:13 10° SSW 01:54:45 67° ESE 01:56:29 50° ENE
Cosmos 1000 Rocket 4.3 01:51:25 10° N 01:57:38 85° E 02:03:54 10° S
Cosmos 2239 Rocket 4.4 01:52:23 10° S 01:58:42 89° WNW 02:05:04 10° N
ADEOS Rocket 3.5 01:52:18 10° N 01:59:09 78° WNW 02:06:40 10° SSW
Cosmos 1603 3.8 01:55:45 10° NNW 02:00:38 57° NNE 02:00:38 57° NNE
Timation 1 Rocket 4.2 01:55:42 10° SSW 02:01:39 79° ESE 02:02:43 61° NE
Cosmos 2263 Rocket 2.1 02:02:22 10° SSW 02:07:55 86° WNW 02:08:33 71° N
Cosmos 1371 Rocket 4.0 02:06:48 10° SSW 02:11:42 78° WSW 02:11:42 78° WSW
Cosmos 44 Rocket 4.3 02:08:12 10° SW 02:12:45 40° NW 02:13:37 37° NNW
Cosmos 1535 Rocket 4.4 02:06:28 10° S 02:12:45 83° E 02:14:49 46° NNE
DELTA 2 R/B (1) 3.7 02:08:09 10° W 02:13:42 64° SSW 02:13:48 64° SSW
Cosmos 1943 4.4 02:27:05 10° NNW 02:30:08 33° NNW 02:30:08 33° NNW
Ariane Rocket 4.2 02:31:39 10° SSW 02:36:21 39° W 02:41:07 10° NNW
FALCON 9 R/B 4.4 03:27:22 10° WSW 03:33:08 28° WSW 03:33:08 28° WSW
CZ-3A R/B 4.5 10:18:40 29° SSE 10:18:46 29° SSE 10:33:41 10° ESE
CENTAUR R/B 4.2 10:34:34 29° N 10:37:49 39° NE 10:45:50 10° ESE
NOSS 3-2 (A) 4.3 10:39:42 64° NNE 10:40:19 66° NE 10:48:44 10° SE
Cosmos 2322 Rocket 4.0 10:52:04 10° SSE 10:56:51 29° ESE 11:01:40 10° NE
Cosmos 2263 Rocket 3.6 11:00:21 26° NNE 11:02:31 35° ENE 11:07:38 10° SE
ATLAS 2AS CENTAUR R/B 2.9 11:05:45 73° SW 11:06:39 85° WNW 11:14:44 10° NNE
Cosmos 2344 4.1 11:11:01 41° NNW 11:11:01 41° NNW 11:17:21 10° NNE
Meteor 1-21 Rocket 4.4 11:13:47 44° N 11:15:44 74° E 11:21:38 10° SSE
ALOS 3.9 11:12:43 10° NNE 11:16:56 33° E 11:21:07 10° SSE
USA 238 DEB 3.7 11:19:32 68° W 11:20:07 71° WSW 11:27:32 10° SSE
USA 238 3.7 11:19:35 68° W 11:20:14 72° WSW 11:27:38 10° SSE
Cosmos 972 Rocket 4.1 11:28:28 56° NNW 11:29:44 89° ENE 11:35:03 10° SSE
Gbstr 26 Del rocket 4.1 11:30:01 61° W 11:31:14 73° NW 11:39:05 10° NE
Genesis I 4.2 11:35:03 43° ENE 11:35:03 43° ENE 11:38:35 10° SE
Cosmos 1825 Rocket 4.0 11:36:17 51° SSE 11:36:17 51° SSE 11:39:36 10° S
Cosmos 1908 4.1 11:33:48 10° SSE 11:37:35 49° E 11:41:22 10° NNE
FENGYUN 3A 4.3 11:32:22 10° NNE 11:37:40 56° E 11:42:59 10° S
SL-16 R/B 2.2 11:34:33 16° SSW 11:39:07 81° ESE 11:44:48 10° NNE
Cosmos 2360 Rocket 3.8 11:37:01 10° SSE 11:42:05 35° ESE 11:47:09 10° NE
Okean O Rocket 3.5 11:39:17 10° NE 11:43:14 30° E 11:47:08 10° SSE
SL-8 Rocket 4.2 11:37:16 10° N 11:43:26 69° E 11:49:33 10° SSE
Cosmos 2058 Rocket 3.7 11:39:22 10° S 11:43:38 56° E 11:47:56 10° NNE
RESURS DK-1 3.4 11:40:13 10° S 11:44:08 44° ESE 11:48:05 10° NE
Cosmos 923 Rocket 4.4 11:45:38 46° NNW 11:45:38 46° NNW 11:49:51 10° N
Cosmos 2181 Rocket 3.9 11:41:19 10° S 11:47:32 90° N 11:53:53 10° N
Abrixas rocket 3.7 11:49:05 31° SE 11:49:05 31° SE 11:50:49 10° SE
Cosmos 1980 Rocket 3.8 11:51:10 19° NNW 11:51:10 19° NNW 11:53:16 10° N
Lacrosse 5 1.7 11:48:48 61° W 11:49:31 72° NW 11:54:37 10° NE
Cosmos 1726 Rocket 3.4 11:46:15 10° SSW 11:50:41 74° W 11:55:07 10° N
